{"data":{"norad_id":62466,"epoch":"2026-09-21T07:48:08.159616Z","epoch_age_seconds":103282,"freshness":"FRESH","line1":"1 62466U 24254E   26264.32509444  .00196343  00000+0  14921-2 0  9996","line2":"2 62466  43.0001 123.3965 0001492 292.4225  67.6485 15.70930727100014","mean_motion":15.70930727,"eccentricity":0.0001492,"inclination_deg":43.0001,"raan_deg":123.3965,"arg_perigee_deg":292.4225,"mean_anomaly_deg":67.6485,"bstar":0.0014921,"rev_number":10001,"period_min":91.665404161389,"perigee_km":355.23099088742,"apogee_km":357.2405277188,"semimajor_km":6734.3727593031,"source":"CELESTRAK","updated_at":"2026-09-22T09:00:49.611846Z"}}